Regional Weather Roundup
Issued by NWS

Home | Current Version | Previous Version | Graphics & Text | Print | Product List | Glossary On
Versions: 1 2 3 4 5 6 7 8 9 10 11 12 13 14 15 16 17 18 19 20 21 22 23 24 25 26 27 28 29 30 31 32 33 34 35 36 37 38 39 40 41 42 43 44 45 46 47 48 49 50
199
ASUS45 KBOI 222210
RWRID

IDAHO REGIONAL WEATHER ROUNDUP
NATIONAL WEATHER SERVICE BOISE ID
400 PM MDT SUN OCT 22 2017

NOTE: "FAIR" INDICATES FEW OR NO CLOUDS BELOW 12000 FEET
WITH NO SIGNIFICANT WEATHER AND/OR OBSTRUCTIONS TO VISIBILITY

IDZ012-014-222300-
SOUTHWEST IDAHO


CITY           SKY/WX    TMP DP  RH WIND       PRES   REMARKS
BOISE          PTSUNNY   63  43  48 E5        30.26S
CALDWELL       CLOUDY    65  47  52 NW7       30.26R
MOUNTAIN HOME  PTSUNNY   66  44  44 W3        30.27S
$$

IDZ016-017-222300-
SOUTHCENTRAL IDAHO


CITY           SKY/WX    TMP DP  RH WIND       PRES   REMARKS
BURLEY         MOSUNNY   64  39  39 W15G24    30.27S
JEROME         MOSUNNY   61  42  49 W17G26    30.28S
TWIN FALLS     MOSUNNY   63  42  46 W13       30.29R
$$

IDZ019>023-222300-
SOUTHEAST IDAHO


CITY           SKY/WX    TMP DP  RH WIND       PRES   REMARKS
IDAHO FALLS    CLOUDY    58  38  47 SW36G47   30.19F
POCATELLO      PTSUNNY   62  37  39 W22G28    30.28R
REXBURG        CLOUDY    56  36  47 SW31G41   30.18R
$$

IDZ006-010-011-018-031-032-222300-
CENTRAL IDAHO MOUNTAINS


CITY           SKY/WX    TMP DP  RH WIND       PRES   REMARKS
MCCALL         LGT RAIN  46  41  82 SW10      30.26R
STANLEY          N/A     45  38  76 VRB5      30.29R
SALMON         PTSUNNY   56  37  49 W18G35    30.13R
CHALLIS        PTSUNNY   56  35  45 W15G29    30.18R
$$

IDZ002-004-006-007-026-222300-
NORTHERN IDAHO


CITY           SKY/WX    TMP DP  RH WIND       PRES   REMARKS
LEWISTON       CLOUDY    62  37  39 W18G30    30.21R
LOWELL           N/A     52  52 100 N5        30.20R
COEUR D`ALENE  PTSUNNY   55  37  50 SW23G33   30.11R
MULLAN PASS    CLOUDY    35  28  75 W12G23    30.11R WCI  27
$$




USA.gov is the U.S. government's official web portal to all federal, state and local government web resources and services.